Year,Month,Day,Hour,Minute,Value (Times are PST for temperature in C)
2011,02,16,00,00,2.60
2011,02,16,00,01,2.60
2011,02,16,00,02,2.60
2011,02,16,00,03,2.60
2011,02,16,00,04,2.60
2011,02,16,00,05,2.70
2011,02,16,00,06,2.70
2011,02,16,00,07,2.70
2011,02,16,00,08,2.70
2011,02,16,00,09,2.70
2011,02,16,00,10,2.80
2011,02,16,00,11,2.80
2011,02,16,00,12,2.80
2011,02,16,00,13,2.80
2011,02,16,00,14,2.70
2011,02,16,00,15,2.70
2011,02,16,00,16,2.70
2011,02,16,00,17,2.70
2011,02,16,00,18,2.70
2011,02,16,00,19,2.70
2011,02,16,00,20,2.70
2011,02,16,00,21,2.60
2011,02,16,00,22,2.60
2011,02,16,00,23,2.60
2011,02,16,00,24,2.60
2011,02,16,00,25,2.70
2011,02,16,00,26,2.70
2011,02,16,00,27,2.70
2011,02,16,00,28,2.70
2011,02,16,00,29,2.70
2011,02,16,00,30,2.70
2011,02,16,00,31,2.70
2011,02,16,00,32,2.70
2011,02,16,00,33,2.70
2011,02,16,00,34,2.70
2011,02,16,00,35,2.70
2011,02,16,00,36,2.60
2011,02,16,00,37,2.50
2011,02,16,00,38,2.50
2011,02,16,00,39,2.40
2011,02,16,00,40,2.30
2011,02,16,00,41,2.20
2011,02,16,00,42,2.20
2011,02,16,00,43,2.10
2011,02,16,00,44,2.00
2011,02,16,00,45,2.00
2011,02,16,00,46,1.90
2011,02,16,00,47,1.90
2011,02,16,00,48,1.90
2011,02,16,00,49,1.80
2011,02,16,00,50,1.80
2011,02,16,00,51,1.80
2011,02,16,00,52,1.80
2011,02,16,00,53,1.80
2011,02,16,00,54,1.80
2011,02,16,00,55,1.80
2011,02,16,00,56,1.80
2011,02,16,00,57,1.80
2011,02,16,00,58,1.80
2011,02,16,00,59,1.80
2011,02,16,01,00,1.70
2011,02,16,01,01,1.70
2011,02,16,01,02,1.70
2011,02,16,01,03,1.70
2011,02,16,01,04,1.70
2011,02,16,01,05,1.70
2011,02,16,01,06,1.70
2011,02,16,01,07,1.70
2011,02,16,01,08,1.60
2011,02,16,01,09,1.60
2011,02,16,01,10,1.60
2011,02,16,01,11,1.60
2011,02,16,01,12,1.60
2011,02,16,01,13,1.60
2011,02,16,01,14,1.60
2011,02,16,01,15,1.60
2011,02,16,01,16,1.60
2011,02,16,01,17,1.60
2011,02,16,01,18,1.60
2011,02,16,01,19,1.60
2011,02,16,01,20,1.50
2011,02,16,01,21,1.50
2011,02,16,01,22,1.50
2011,02,16,01,23,1.50
2011,02,16,01,24,1.50
2011,02,16,01,25,1.50
2011,02,16,01,26,1.50
2011,02,16,01,27,1.50
2011,02,16,01,28,1.50
2011,02,16,01,29,1.50
2011,02,16,01,30,1.60
2011,02,16,01,31,1.60
2011,02,16,01,32,1.60
2011,02,16,01,33,1.70
2011,02,16,01,34,1.70
2011,02,16,01,35,1.70
2011,02,16,01,36,1.80
2011,02,16,01,37,1.80
2011,02,16,01,38,1.80
2011,02,16,01,39,1.80
2011,02,16,01,40,1.80
2011,02,16,01,41,1.80
2011,02,16,01,42,1.80
2011,02,16,01,43,1.80
2011,02,16,01,44,1.70
2011,02,16,01,45,1.70
2011,02,16,01,46,1.70
2011,02,16,01,47,1.60
2011,02,16,01,48,1.60
2011,02,16,01,49,1.60
2011,02,16,01,50,1.50
2011,02,16,01,51,1.50
2011,02,16,01,52,1.50
2011,02,16,01,53,1.50
2011,02,16,01,54,1.50
2011,02,16,01,55,1.50
2011,02,16,01,56,1.50
2011,02,16,01,57,1.50
2011,02,16,01,58,1.40
2011,02,16,01,59,1.40
2011,02,16,02,00,1.40
2011,02,16,02,01,1.40
2011,02,16,02,02,1.40
2011,02,16,02,03,1.30
2011,02,16,02,04,1.30
2011,02,16,02,05,1.30
2011,02,16,02,06,1.30
2011,02,16,02,07,1.30
2011,02,16,02,08,1.30
2011,02,16,02,09,1.30
2011,02,16,02,10,1.20
2011,02,16,02,11,1.20
2011,02,16,02,12,1.20
2011,02,16,02,13,1.30
2011,02,16,02,14,1.30
2011,02,16,02,15,1.30
2011,02,16,02,16,1.30
2011,02,16,02,17,1.30
2011,02,16,02,18,1.30
2011,02,16,02,19,1.30
2011,02,16,02,20,1.20
2011,02,16,02,21,1.20
2011,02,16,02,22,1.20
2011,02,16,02,23,1.20
2011,02,16,02,24,1.20
2011,02,16,02,25,1.20
2011,02,16,02,26,1.20
2011,02,16,02,27,1.30
2011,02,16,02,28,1.30
2011,02,16,02,29,1.30
2011,02,16,02,30,1.30
2011,02,16,02,31,1.30
2011,02,16,02,32,1.30
2011,02,16,02,33,1.30
2011,02,16,02,34,1.30
2011,02,16,02,35,1.30
2011,02,16,02,36,1.30
2011,02,16,02,37,1.30
2011,02,16,02,38,1.30
2011,02,16,02,39,1.20
2011,02,16,02,40,1.20
2011,02,16,02,41,1.20
2011,02,16,02,42,1.20
2011,02,16,02,43,1.20
2011,02,16,02,44,1.20
2011,02,16,02,45,1.20
2011,02,16,02,46,1.20
2011,02,16,02,47,1.20
2011,02,16,02,48,1.20
2011,02,16,02,49,1.20
2011,02,16,02,50,1.30
2011,02,16,02,51,1.20
2011,02,16,02,52,1.20
2011,02,16,02,53,1.10
2011,02,16,02,54,1.10
2011,02,16,02,55,1.10
2011,02,16,02,56,1.00
2011,02,16,02,57,1.00
2011,02,16,02,58,1.00
2011,02,16,02,59,0.90
2011,02,16,03,00,0.90
2011,02,16,03,01,0.80
2011,02,16,03,02,0.80
2011,02,16,03,03,0.80
2011,02,16,03,04,0.80
2011,02,16,03,05,0.80
2011,02,16,03,06,0.80
2011,02,16,03,07,0.80
2011,02,16,03,08,0.80
2011,02,16,03,09,0.80
2011,02,16,03,10,0.80
2011,02,16,03,11,0.80
2011,02,16,03,12,0.70
2011,02,16,03,13,0.70
2011,02,16,03,14,0.70
2011,02,16,03,15,0.70
2011,02,16,03,16,0.70
2011,02,16,03,17,0.70
2011,02,16,03,18,0.60
2011,02,16,03,19,0.60
2011,02,16,03,20,0.60
2011,02,16,03,21,0.60
2011,02,16,03,22,0.60
2011,02,16,03,23,0.50
2011,02,16,03,24,0.50
2011,02,16,03,25,0.50
2011,02,16,03,26,0.50
2011,02,16,03,27,0.50
2011,02,16,03,28,0.40
2011,02,16,03,29,0.40
2011,02,16,03,30,0.40
2011,02,16,03,31,0.40
2011,02,16,03,32,0.40
2011,02,16,03,33,0.40
2011,02,16,03,34,0.40
2011,02,16,03,35,0.40
2011,02,16,03,36,0.40
2011,02,16,03,37,0.40
2011,02,16,03,38,0.40
2011,02,16,03,39,0.40
2011,02,16,03,40,0.30
2011,02,16,03,41,0.30
2011,02,16,03,42,0.30
2011,02,16,03,43,0.30
2011,02,16,03,44,0.30
2011,02,16,03,45,0.30
2011,02,16,03,46,0.30
2011,02,16,03,47,0.30
2011,02,16,03,48,0.20
2011,02,16,03,49,0.20
2011,02,16,03,50,0.20
2011,02,16,03,51,0.10
2011,02,16,03,52,0.10
2011,02,16,03,53,0.10
2011,02,16,03,54,0.00
2011,02,16,03,55,-0.10
2011,02,16,03,56,-0.10
2011,02,16,03,57,-0.10
2011,02,16,03,58,-0.10
2011,02,16,03,59,-0.10
2011,02,16,04,00,-0.10
2011,02,16,04,01,-0.10
2011,02,16,04,02,0.00
2011,02,16,04,03,0.10
2011,02,16,04,04,0.10
2011,02,16,04,05,0.10
2011,02,16,04,06,0.10
2011,02,16,04,07,0.20
2011,02,16,04,08,0.20
2011,02,16,04,09,0.20
2011,02,16,04,10,0.20
2011,02,16,04,11,0.10
2011,02,16,04,12,0.10
2011,02,16,04,13,0.10
2011,02,16,04,14,0.10
2011,02,16,04,15,-0.10
2011,02,16,04,16,-0.10
2011,02,16,04,17,-0.10
2011,02,16,04,18,-0.10
2011,02,16,04,19,-0.10
2011,02,16,04,20,-0.10
2011,02,16,04,21,-0.10
2011,02,16,04,22,-0.10
2011,02,16,04,23,0.10
2011,02,16,04,24,0.10
2011,02,16,04,25,0.10
2011,02,16,04,26,0.10
2011,02,16,04,27,0.10
2011,02,16,04,28,0.10
2011,02,16,04,29,0.10
2011,02,16,04,30,0.20
2011,02,16,04,31,0.20
2011,02,16,04,32,0.20
2011,02,16,04,33,0.20
2011,02,16,04,34,0.20
2011,02,16,04,35,0.20
2011,02,16,04,36,0.20
2011,02,16,04,37,0.20
2011,02,16,04,38,0.30
2011,02,16,04,39,0.30
2011,02,16,04,40,0.30
2011,02,16,04,41,0.30
2011,02,16,04,42,0.30
2011,02,16,04,43,0.30
2011,02,16,04,44,0.30
2011,02,16,04,45,0.30
2011,02,16,04,46,0.30
2011,02,16,04,47,0.30
2011,02,16,04,48,0.30
2011,02,16,04,49,0.30
2011,02,16,04,50,0.30
2011,02,16,04,51,0.30
2011,02,16,04,52,0.30
2011,02,16,04,53,0.30
2011,02,16,04,54,0.30
2011,02,16,04,55,0.30
2011,02,16,04,56,0.40
2011,02,16,04,57,0.40
2011,02,16,04,58,0.40
2011,02,16,04,59,0.40
2011,02,16,05,00,0.40
2011,02,16,05,01,0.40
2011,02,16,05,02,0.40
2011,02,16,05,03,0.40
2011,02,16,05,04,0.50
2011,02,16,05,05,0.50
2011,02,16,05,06,0.50
2011,02,16,05,07,0.50
2011,02,16,05,08,0.60
2011,02,16,05,09,0.60
2011,02,16,05,10,0.60
2011,02,16,05,11,0.60
2011,02,16,05,12,0.70
2011,02,16,05,13,0.80
2011,02,16,05,14,0.80
2011,02,16,05,15,0.90
2011,02,16,05,16,0.90
2011,02,16,05,17,1.00
2011,02,16,05,18,1.00
2011,02,16,05,19,1.00
2011,02,16,05,20,0.90
2011,02,16,05,21,0.90
2011,02,16,05,22,0.80
2011,02,16,05,23,0.80
2011,02,16,05,24,0.80
2011,02,16,05,25,0.80
2011,02,16,05,26,0.80
2011,02,16,05,27,0.80
2011,02,16,05,28,0.80
2011,02,16,05,29,0.80
2011,02,16,05,30,0.80
2011,02,16,05,31,0.80
2011,02,16,05,32,0.80
2011,02,16,05,33,0.80
2011,02,16,05,34,0.80
2011,02,16,05,35,0.80
2011,02,16,05,36,0.80
2011,02,16,05,37,0.80
2011,02,16,05,38,0.80
2011,02,16,05,39,0.80
2011,02,16,05,40,0.80
2011,02,16,05,41,0.80
2011,02,16,05,42,0.90
2011,02,16,05,43,0.90
2011,02,16,05,44,0.90
2011,02,16,05,45,0.90
2011,02,16,05,46,0.90
2011,02,16,05,47,0.90
2011,02,16,05,48,1.00
2011,02,16,05,49,1.00
2011,02,16,05,50,1.00
2011,02,16,05,51,1.00
2011,02,16,05,52,1.00
2011,02,16,05,53,1.00
2011,02,16,05,54,1.00
2011,02,16,05,55,1.00
2011,02,16,05,56,1.00
2011,02,16,05,57,1.00
2011,02,16,05,58,1.10
2011,02,16,05,59,1.10
2011,02,16,06,00,1.20
2011,02,16,06,01,1.20
2011,02,16,06,02,1.20
2011,02,16,06,03,1.30
2011,02,16,06,04,1.30
2011,02,16,06,05,1.30
2011,02,16,06,06,1.30
2011,02,16,06,07,1.30
2011,02,16,06,08,1.30
2011,02,16,06,09,1.30
2011,02,16,06,10,1.40
2011,02,16,06,11,1.40
2011,02,16,06,12,1.40
2011,02,16,06,13,1.50
2011,02,16,06,14,1.60
2011,02,16,06,15,1.80
2011,02,16,06,16,2.00
2011,02,16,06,17,2.20
2011,02,16,06,18,2.30
2011,02,16,06,19,2.50
2011,02,16,06,20,2.50
2011,02,16,06,21,2.60
2011,02,16,06,22,2.70
2011,02,16,06,23,2.70
2011,02,16,06,24,2.70
2011,02,16,06,25,2.70
2011,02,16,06,26,2.70
2011,02,16,06,27,2.70
2011,02,16,06,28,2.60
2011,02,16,06,29,2.60
2011,02,16,06,30,2.60
2011,02,16,06,31,2.60
2011,02,16,06,32,2.60
2011,02,16,06,33,2.60
2011,02,16,06,34,2.50
2011,02,16,06,35,2.50
2011,02,16,06,36,2.50
2011,02,16,06,37,2.50
2011,02,16,06,38,2.50
2011,02,16,06,39,2.50
2011,02,16,06,40,2.60
2011,02,16,06,41,2.60
2011,02,16,06,42,2.60
2011,02,16,06,43,2.60
2011,02,16,06,44,2.60
2011,02,16,06,45,2.60
2011,02,16,06,46,2.70
2011,02,16,06,47,2.70
2011,02,16,06,48,2.70
2011,02,16,06,49,2.70
2011,02,16,06,50,2.70
2011,02,16,06,51,2.70
2011,02,16,06,52,2.70
2011,02,16,06,53,2.80
2011,02,16,06,54,2.80
2011,02,16,06,55,2.80
2011,02,16,06,56,2.80
2011,02,16,06,57,2.80
2011,02,16,06,58,2.80
2011,02,16,06,59,2.80
2011,02,16,07,00,2.80
2011,02,16,07,01,2.80
2011,02,16,07,02,2.70
2011,02,16,07,03,2.70
2011,02,16,07,04,2.70
2011,02,16,07,05,2.70
2011,02,16,07,06,2.70
2011,02,16,07,07,2.70
2011,02,16,07,08,2.70
2011,02,16,07,09,2.70
2011,02,16,07,10,2.60
2011,02,16,07,11,2.60
2011,02,16,07,12,2.60
2011,02,16,07,13,2.60
2011,02,16,07,14,2.60
2011,02,16,07,15,2.60
2011,02,16,07,16,2.60
2011,02,16,07,17,2.50
2011,02,16,07,18,2.50
2011,02,16,07,19,2.50
2011,02,16,07,20,2.50
2011,02,16,07,21,2.50
2011,02,16,07,22,2.50
2011,02,16,07,23,2.50
2011,02,16,07,24,2.50
2011,02,16,07,25,2.50
2011,02,16,07,26,2.50
2011,02,16,07,27,2.50
2011,02,16,07,28,2.50
2011,02,16,07,29,2.50
2011,02,16,07,30,2.50
2011,02,16,07,31,2.50
2011,02,16,07,32,2.50
2011,02,16,07,33,2.50
2011,02,16,07,34,2.40
2011,02,16,07,35,2.40
2011,02,16,07,36,2.40
2011,02,16,07,37,2.40
2011,02,16,07,38,2.40
2011,02,16,07,39,2.40
2011,02,16,07,40,2.40
2011,02,16,07,41,2.40
2011,02,16,07,42,2.40
2011,02,16,07,43,2.40
2011,02,16,07,44,2.40
2011,02,16,07,45,2.40
2011,02,16,07,46,2.40
2011,02,16,07,47,2.40
2011,02,16,07,48,2.40
2011,02,16,07,49,2.40
2011,02,16,07,50,2.40
2011,02,16,07,51,2.40
2011,02,16,07,52,2.40
2011,02,16,07,53,2.40
2011,02,16,07,54,2.40
2011,02,16,07,55,2.40
2011,02,16,07,56,2.50
2011,02,16,07,57,2.50
2011,02,16,07,58,2.50
2011,02,16,07,59,2.50
2011,02,16,08,00,2.60
2011,02,16,08,01,2.60
2011,02,16,08,02,2.70
2011,02,16,08,03,2.70
2011,02,16,08,04,2.70
2011,02,16,08,05,2.80
2011,02,16,08,06,2.80
2011,02,16,08,07,2.80
2011,02,16,08,08,2.90
2011,02,16,08,09,2.90
2011,02,16,08,10,2.90
2011,02,16,08,11,2.90
2011,02,16,08,12,2.90
2011,02,16,08,13,2.90
2011,02,16,08,14,2.90
2011,02,16,08,15,2.90
2011,02,16,08,16,3.00
2011,02,16,08,17,3.10
2011,02,16,08,18,3.10
2011,02,16,08,19,3.10
2011,02,16,08,20,3.10
2011,02,16,08,21,3.10
2011,02,16,08,22,3.10
2011,02,16,08,23,3.10
2011,02,16,08,24,3.10
2011,02,16,08,25,3.10
2011,02,16,08,26,3.10
2011,02,16,08,27,3.10
2011,02,16,08,28,3.10
2011,02,16,08,29,3.10
2011,02,16,08,30,3.10
2011,02,16,08,31,3.10
2011,02,16,08,32,3.10
2011,02,16,08,33,3.10
2011,02,16,08,34,3.10
2011,02,16,08,35,3.20
2011,02,16,08,36,3.20
2011,02,16,08,37,3.20
2011,02,16,08,38,3.20
2011,02,16,08,39,3.20
2011,02,16,08,40,3.20
2011,02,16,08,41,3.30
2011,02,16,08,42,3.30
2011,02,16,08,43,3.30
2011,02,16,08,44,3.30
2011,02,16,08,45,3.30
2011,02,16,08,46,3.30
2011,02,16,08,47,3.30
2011,02,16,08,48,3.40
2011,02,16,08,49,3.40
2011,02,16,08,50,3.40
2011,02,16,08,51,3.40
2011,02,16,08,52,3.40
2011,02,16,08,53,3.50
2011,02,16,08,54,3.50
2011,02,16,08,55,3.50
2011,02,16,08,56,3.50
2011,02,16,08,57,3.60
2011,02,16,08,58,3.60
2011,02,16,08,59,3.60
2011,02,16,09,00,3.70
2011,02,16,09,01,3.70
2011,02,16,09,02,3.70
2011,02,16,09,03,3.70
2011,02,16,09,04,3.70
2011,02,16,09,05,3.70
2011,02,16,09,06,3.80
2011,02,16,09,07,3.80
2011,02,16,09,08,3.80
2011,02,16,09,09,3.70
2011,02,16,09,10,3.70
2011,02,16,09,11,3.70
2011,02,16,09,12,3.70
2011,02,16,09,13,3.70
2011,02,16,09,14,3.70
2011,02,16,09,15,3.70
2011,02,16,09,16,3.70
2011,02,16,09,17,3.80
2011,02,16,09,18,3.80
2011,02,16,09,19,3.80
2011,02,16,09,20,3.80
2011,02,16,09,21,3.80
2011,02,16,09,22,3.80
2011,02,16,09,23,3.80
2011,02,16,09,24,3.90
2011,02,16,09,25,3.90
2011,02,16,09,26,3.90
2011,02,16,09,27,3.90
2011,02,16,09,28,3.90
2011,02,16,09,29,4.00
2011,02,16,09,30,4.00
2011,02,16,09,31,4.00
2011,02,16,09,32,4.00
2011,02,16,09,33,4.00
2011,02,16,09,34,4.00
2011,02,16,09,35,4.00
2011,02,16,09,36,4.00
2011,02,16,09,37,4.00
2011,02,16,09,38,4.00
2011,02,16,09,39,4.00
2011,02,16,09,40,4.00
2011,02,16,09,41,4.00
2011,02,16,09,42,4.00
2011,02,16,09,43,4.00
2011,02,16,09,44,4.00
2011,02,16,09,45,4.00
2011,02,16,09,46,4.00
2011,02,16,09,47,4.00
2011,02,16,09,48,4.00
2011,02,16,09,49,4.00
2011,02,16,09,50,4.00
2011,02,16,09,51,4.00
2011,02,16,09,52,4.10
2011,02,16,09,53,4.10
2011,02,16,09,54,4.10
2011,02,16,09,55,4.10
2011,02,16,09,56,4.10
2011,02,16,09,57,4.20
2011,02,16,09,58,4.20
2011,02,16,09,59,4.20
2011,02,16,10,00,4.20
2011,02,16,10,01,4.20
2011,02,16,10,02,4.20
2011,02,16,10,03,4.20
2011,02,16,10,04,4.20
2011,02,16,10,05,4.20
2011,02,16,10,06,4.20
2011,02,16,10,07,4.20
2011,02,16,10,08,4.20
2011,02,16,10,09,4.20
2011,02,16,10,10,4.20
2011,02,16,10,11,4.20
2011,02,16,10,12,4.20
2011,02,16,10,13,4.20
2011,02,16,10,14,4.20
2011,02,16,10,15,4.20
2011,02,16,10,16,4.20
2011,02,16,10,17,4.20
2011,02,16,10,18,4.20
2011,02,16,10,19,4.20
2011,02,16,10,20,4.30
2011,02,16,10,21,4.30
2011,02,16,10,22,4.30
2011,02,16,10,23,4.30
2011,02,16,10,24,4.30
2011,02,16,10,25,4.30
2011,02,16,10,26,4.30
2011,02,16,10,27,4.40
2011,02,16,10,28,4.40
2011,02,16,10,29,4.40
2011,02,16,10,30,4.40
2011,02,16,10,31,4.40
2011,02,16,10,32,4.40
2011,02,16,10,33,4.40
2011,02,16,10,34,4.40
2011,02,16,10,35,4.40
2011,02,16,10,36,4.40
2011,02,16,10,37,4.40
2011,02,16,10,38,4.30
2011,02,16,10,39,4.30
2011,02,16,10,40,4.30
2011,02,16,10,41,4.30
2011,02,16,10,42,4.30
2011,02,16,10,43,4.30
2011,02,16,10,44,4.30
2011,02,16,10,45,4.30
2011,02,16,10,46,4.30
2011,02,16,10,47,4.30
2011,02,16,10,48,4.40
2011,02,16,10,49,4.40
2011,02,16,10,50,4.40
2011,02,16,10,51,4.40
2011,02,16,10,52,4.40
2011,02,16,10,53,4.40
2011,02,16,10,54,4.40
2011,02,16,10,55,4.40
2011,02,16,10,56,4.40
2011,02,16,10,57,4.40
2011,02,16,10,58,4.50
2011,02,16,10,59,4.50
2011,02,16,11,00,4.50
2011,02,16,11,01,4.50
2011,02,16,11,02,4.60
2011,02,16,11,03,4.60
2011,02,16,11,04,4.60
2011,02,16,11,05,4.70
2011,02,16,11,06,4.70
2011,02,16,11,07,4.80
2011,02,16,11,08,4.80
2011,02,16,11,09,4.90
2011,02,16,11,10,4.90
2011,02,16,11,11,4.90
2011,02,16,11,12,4.90
2011,02,16,11,13,4.90
2011,02,16,11,14,4.90
2011,02,16,11,15,4.80
2011,02,16,11,16,4.80
2011,02,16,11,17,4.80
2011,02,16,11,18,4.80
2011,02,16,11,19,4.80
2011,02,16,11,20,4.90
2011,02,16,11,21,4.90
2011,02,16,11,22,4.90
2011,02,16,11,23,5.00
2011,02,16,11,24,5.10
2011,02,16,11,25,5.10
2011,02,16,11,26,5.10
2011,02,16,11,27,5.10
2011,02,16,11,28,5.20
2011,02,16,11,29,5.20
2011,02,16,11,30,5.20
2011,02,16,11,31,5.20
2011,02,16,11,32,5.20
2011,02,16,11,33,5.20
2011,02,16,11,34,5.20
2011,02,16,11,35,5.20
2011,02,16,11,36,5.10
2011,02,16,11,37,5.10
2011,02,16,11,38,5.10
2011,02,16,11,39,5.10
2011,02,16,11,40,5.10
2011,02,16,11,41,5.10
2011,02,16,11,42,5.10
2011,02,16,11,43,5.10
2011,02,16,11,44,5.20
2011,02,16,11,45,5.20
2011,02,16,11,46,5.30
2011,02,16,11,47,5.30
2011,02,16,11,48,5.30
2011,02,16,11,49,5.30
2011,02,16,11,50,5.30
2011,02,16,11,51,5.30
2011,02,16,11,52,5.40
2011,02,16,11,53,5.50
2011,02,16,11,54,5.60
2011,02,16,11,55,5.70
2011,02,16,11,56,5.70
2011,02,16,11,57,5.70
2011,02,16,11,58,5.70
2011,02,16,11,59,5.70
2011,02,16,12,00,5.80
2011,02,16,12,01,5.90
2011,02,16,12,02,6.00
2011,02,16,12,03,5.90
2011,02,16,12,04,6.00
2011,02,16,12,05,6.00
2011,02,16,12,06,6.00
2011,02,16,12,07,5.90
2011,02,16,12,08,5.90
2011,02,16,12,09,6.00
2011,02,16,12,10,6.00
2011,02,16,12,11,6.10
2011,02,16,12,12,6.10
2011,02,16,12,13,6.00
2011,02,16,12,14,5.90
2011,02,16,12,15,5.80
2011,02,16,12,16,5.90
2011,02,16,12,17,5.90
2011,02,16,12,18,5.90
2011,02,16,12,19,5.90
2011,02,16,12,20,5.90
2011,02,16,12,21,6.00
2011,02,16,12,22,6.00
2011,02,16,12,23,6.00
2011,02,16,12,24,6.20
2011,02,16,12,25,6.10
2011,02,16,12,26,6.00
2011,02,16,12,27,6.00
2011,02,16,12,28,6.00
2011,02,16,12,29,6.00
2011,02,16,12,30,6.10
2011,02,16,12,31,6.20
2011,02,16,12,32,6.30
2011,02,16,12,33,6.30
2011,02,16,12,34,6.40
2011,02,16,12,35,6.40
2011,02,16,12,36,6.40
2011,02,16,12,37,6.40
2011,02,16,12,38,6.30
2011,02,16,12,39,6.20
2011,02,16,12,40,6.20
2011,02,16,12,41,6.20
2011,02,16,12,42,6.20
2011,02,16,12,43,6.10
2011,02,16,12,44,6.00
2011,02,16,12,45,6.00
2011,02,16,12,46,6.00
2011,02,16,12,47,6.00
2011,02,16,12,48,6.10
2011,02,16,12,49,6.10
2011,02,16,12,50,6.10
2011,02,16,12,51,6.00
2011,02,16,12,52,6.00
2011,02,16,12,53,6.00
2011,02,16,12,54,6.00
2011,02,16,12,55,6.00
2011,02,16,12,56,6.10
2011,02,16,12,57,6.10
2011,02,16,12,58,6.20
2011,02,16,12,59,6.20
2011,02,16,13,00,6.20
2011,02,16,13,01,6.20
2011,02,16,13,02,6.20
2011,02,16,13,03,6.20
2011,02,16,13,04,6.20
2011,02,16,13,05,6.20
2011,02,16,13,06,6.10
2011,02,16,13,07,6.00
2011,02,16,13,08,6.00
2011,02,16,13,09,6.00
2011,02,16,13,10,6.00
2011,02,16,13,11,6.10
2011,02,16,13,12,6.10
2011,02,16,13,13,6.20
2011,02,16,13,14,6.20
2011,02,16,13,15,6.30
2011,02,16,13,16,6.30
2011,02,16,13,17,6.30
2011,02,16,13,18,6.20
2011,02,16,13,19,6.20
2011,02,16,13,20,6.10
2011,02,16,13,21,6.00
2011,02,16,13,22,6.00
2011,02,16,13,23,6.00
2011,02,16,13,24,6.00
2011,02,16,13,25,6.10
2011,02,16,13,26,6.10
2011,02,16,13,27,6.20
2011,02,16,13,28,6.20
2011,02,16,13,29,6.10
2011,02,16,13,30,6.10
2011,02,16,13,31,6.00
2011,02,16,13,32,6.00
2011,02,16,13,33,6.00
2011,02,16,13,34,6.00
2011,02,16,13,35,6.00
2011,02,16,13,36,6.00
2011,02,16,13,37,6.00
2011,02,16,13,38,6.00
2011,02,16,13,39,6.00
2011,02,16,13,40,6.10
2011,02,16,13,41,6.10
2011,02,16,13,42,6.10
2011,02,16,13,43,6.10
2011,02,16,13,44,6.20
2011,02,16,13,45,6.20
2011,02,16,13,46,6.20
2011,02,16,13,47,6.30
2011,02,16,13,48,6.30
2011,02,16,13,49,6.20
2011,02,16,13,50,6.20
2011,02,16,13,51,6.20
2011,02,16,13,52,6.30
2011,02,16,13,53,6.30
2011,02,16,13,54,6.40
2011,02,16,13,55,6.50
2011,02,16,13,56,6.60
2011,02,16,13,57,6.50
2011,02,16,13,58,6.40
2011,02,16,13,59,6.40
2011,02,16,14,00,6.40
2011,02,16,14,01,6.50
2011,02,16,14,02,6.60
2011,02,16,14,03,6.60
2011,02,16,14,04,6.70
2011,02,16,14,05,6.80
2011,02,16,14,06,6.80
2011,02,16,14,07,6.80
2011,02,16,14,08,6.80
2011,02,16,14,09,6.80
2011,02,16,14,10,6.80
2011,02,16,14,11,6.80
2011,02,16,14,12,6.80
2011,02,16,14,13,6.80
2011,02,16,14,14,6.80
2011,02,16,14,15,6.80
2011,02,16,14,16,6.70
2011,02,16,14,17,6.70
2011,02,16,14,18,6.60
2011,02,16,14,19,6.60
2011,02,16,14,20,6.60
2011,02,16,14,21,6.60
2011,02,16,14,22,6.60
2011,02,16,14,23,6.60
2011,02,16,14,24,6.60
2011,02,16,14,25,6.50
2011,02,16,14,26,6.40
2011,02,16,14,27,6.40
2011,02,16,14,28,6.40
2011,02,16,14,29,6.40
2011,02,16,14,30,6.40
2011,02,16,14,31,6.40
2011,02,16,14,32,6.40
2011,02,16,14,33,6.40
2011,02,16,14,34,6.40
2011,02,16,14,35,6.40
2011,02,16,14,36,6.30
2011,02,16,14,37,6.30
2011,02,16,14,38,6.30
2011,02,16,14,39,6.20
